Skip Page Navigation
NASA JPL Caltech
NASA Logo - Jet Propulsion Laboratory + View the NASA Portal
+ Center for Near-Earth Object Studies
JPL Home Earth Solar System Stars & Galaxies Technology
JPL Solar System Dynamics
BODIES ORBITS EPHEMERIDES TOOLS PHYSICAL DATA DISCOVERY FAQ SITE MAP
JPL Small-Body Database Browser
Search: [ help ]  
37510 (3235 T-2)
Classification: Main-belt Asteroid          SPK-ID: 2037510
Ephemeris | Orbit Diagram | Orbital Elements | Mission Design | Physical Parameters | Discovery Circumstances | Close-Approach Data ]

[ show orbit diagram ]
Orbital Elements at Epoch 2459200.5 (2020-Dec-17.0) TDB
Reference: JPL 21 (heliocentric ecliptic J2000)
 Element Value Uncertainty (1-sigma)   Units 
e .07658414617104575 3.494e-08  
a 3.082486219816099 2.2464e-08 au
q 2.846416644587469 1.1716e-07 au
i 6.118455906894686 5.3102e-06 deg
node 46.24895091609779 3.5887e-05 deg
peri 244.9510991083798 5.1113e-05 deg
M 321.1264072242808 3.6416e-05 deg
tp 2459413.953029286679
(2021-Jul-18.45302929)
0.00020033 TDB
period 1976.742694881586
5.41
2.1609e-05
5.916e-08
d
yr
n .1821177844401066 1.9908e-09 deg/d
Q 3.31855579504473 2.4184e-08 au
  Orbit Determination Parameters
   # obs. used (total)      753  
   data-arc span      17051 days (46.68 yr)  
   first obs. used      1973-09-19  
   last obs. used      2020-05-26  
   planetary ephem.      DE441  
   SB-pert. ephem.      SB441-N16  
   condition code      0  
   norm. resid. RMS      .56078  
   source      ORB  
   producer      Otto Matic  
   solution date      2021-Apr-13 08:27:26  

Additional Information
 Earth MOID = 1.83541 au 
 Jupiter MOID = 1.81521 au 
 T_jup = 3.214 
[ show covariance matrix ]

Ephemeris | Orbit Diagram | Orbital Elements | Mission Design | Physical Parameters | Discovery Circumstances | Close-Approach Data ]

Physical Parameter Table
Parameter Symbol Value Units Sigma Reference Notes
absolute magnitude H 14.84   n/a E2020-QM5  

37510 (3235 T-2)          Discovered 1973-Sep-30 by van Houten, C. J., van Houten-Groeneveld, I., Gehrels, T. at Palomar
Reference: 20020227/Numbers.arcLast Updated: 2004-04-19

[ show close-approach data ]
Alternate Designations
 3235 T-2 = 2000 SH365 
Ephemeris | Orbit Diagram | Orbital Elements | Mission Design | Physical Parameters | Discovery Circumstances | Close-Approach Data ]
ABOUT SSD CREDITS/AWARDS PRIVACY/COPYRIGHT GLOSSARY LINKS
FirstGov 2021-May-17 20:22 UT
(server date/time)  
NASA Home Page
Site Manager:   Ryan S. Park
Webmaster  Alan B. Chamberlin